Location: ??????????
(54.7560°N, 39.1389°E)
Time: 14:46:09
(UTC+00:00)

COBE Rocket - Pass Details

Date: 19 May 2025
Orbit: 676 x 772 km, 97.1° (Epoch: 20 June)

Event Time Altitude Azimuth Distance (km) Brightness Sun altitude
Rises 20:09:55 0° 12° (NNE) 3,223 8.4 -13.8°
Reaches altitude 10° 20:12:13 10° 11° (N) 2,305 7.5 -13.9°
Maximum altitude 20:17:19 77° 287° (WNW) 796 4.1 -14.1°
Enters shadow 20:21:40 15° 203° (SSW) 2,015 5.7 -14.2°
